TIME,DELAY(SENSOR),PRES,T(CTD),SAL,OXYGEN,RAWTEMP,T(OPTODE),TCPHASE,FLUOR,BETA(BETA700),BETA(BETA412),BETA(BETA440),CDOM,C(CSC),ED(ED412.40),ED(ED444.00),ED(ED489.70),ED(ED554.30),LU(LU411.80),LU(LU443.40),LU(LU489.60),LU(LU554.10),COMP,TILTX,TILTX(TILTY),CHECK
1337722474,5805,497.0000000000000000,7.3260002136230470,34.1561012268066400,87.8117065429687500,577.5416870117188000,7.3073940277099610,47.6747398376464840,52,105,88,79,81,15280,2147746907,2147421915,2147999085,2147875584,2147628973,2147083200,2148237229,2147205211,3335,4,13,18764
1337722597,5806,485.9899902343750000,7.5131998062133790,34.1586990356445300,90.1916427612304700,571.6848144531250000,7.4952259063720700,47.3193016052246100,51,107,86,80,80,15283,2147744493,2147421787,2148000868,2147872557,2147624932,2147082002,2148243200,2147208091,3085,4,13,20682
1337722707,5805,475.1900024414062500,7.5315999984741210,34.1357002258300800,99.3794631958007800,571.0889282226562000,7.5143179893493650,46.3049201965332000,50,106,90,81,81,15285,2147744914,2147425417,2147999808,2147874944,2147627419,2147081371,2148238838,2147205330,788,4,13,16964
1337722819,5811,464.0599975585937500,7.7189998626708980,34.1213989257812500,108.8603973388671900,565.4672851562500000,7.6942901611328125,45.2318191528320300,51,106,91,81,79,15285,2147742720,2147423780,2148002486,2147876653,2147624402,2147083017,2148235638,2147206637,1112,4,13,15590
1337722929,5809,453.0700073242187500,7.8334999084472660,34.1133003234863300,120.0625991821289000,561.6234741210938000,7.8171877861022950,44.0701904296875000,51,104,89,79,78,15284,2147743232,2147423158,2148002422,2147874496,2147623963,2147087204,2148236406,2147208009,1914,4,13,57746
1337723039,5810,442.0899963378906000,8.0069999694824220,34.1060981750488300,130.2053985595703000,556.3914794921875000,7.9842681884765625,43.0437507629394500,51,107,90,81,78,15286,2147743734,2147422436,2148000009,2147873088,2147623597,2147087323,2148235200,2147204205,2172,4,13,31310
1337723156,5805,431.8500061035156000,8.1218996047973630,34.1110992431640600,133.6815032958984400,552.7559814453125000,8.1002302169799800,42.6710510253906250,50,105,92,80,77,15306,2147745508,2147423561,2147998400,2147875072,2147620525,2147084425,2148233216,2147207241,2906,4,13,42104
1337723321,5807,421.2200012207031000,8.2818002700805660,34.0970993041992200,142.2682037353515600,546.6655883789062000,8.2942495346069340,41.8233909606933600,50,105,89,79,77,15304,2147743204,2147423497,2148000402,2147873563,2147623277,2147093211,2148229092,2147209380,2279,3,13,22758
1337723496,5808,409.8500061035156000,8.4807996749877930,34.1035003662109400,152.9980010986328000,541.2817993164062000,8.4655094146728520,40.8478584289550800,50,106,89,81,76,15306,2147744064,2147422939,2147998921,2147873380,2147622418,2147091437,2148233344,2147206546,336,4,13,60426
1337723628,5806,398.8800048828125000,8.8765001296997070,34.1110000610351560,156.9732971191406200,528.0579223632812000,8.8851833343505860,40.3047485351562500,50,105,88,80,76,15305,2147738715,2147423040,2148001746,2147873801,2147619693,2147091437,2148233645,2147207113,526,4,14,22128
1337723773,5810,385.7699890136719000,9.0713996887207030,34.1134986877441400,170.1194000244140600,522.2968750000000000,9.0675907135009770,39.2123489379882800,50,106,87,81,75,15306,2147739483,2147423131,2148000000,2147875986,2147619766,2147090002,2148228909,2147208329,3302,3,13,4458
1337723872,5811,375.2900085449219000,9.5242004394531250,34.1234016418457000,175.0213012695312500,508.0761108398437500,9.5167942047119140,38.6161117553710940,50,106,89,80,75,15307,2147740196,2147424667,2148002331,2147875657,2147617636,2147096566,2148227547,2147207085,3062,3,13,6594
1337723982,5805,363.6300048828125000,9.8934001922607420,34.1347007751464840,184.6340026855468800,495.6283874511719000,9.9087991714477540,37.7404212951660160,50,107,87,81,72,15304,2147737106,2147419401,2148000557,2147871945,2147615094,2147099867,2148226898,2147204937,3056,3,13,30674
1337724099,5810,352.8500061035156000,10.1433000564575200,34.1408004760742200,195.5534057617187500,488.2406921386719000,10.1409502029418950,36.9029502868652340,49,106,88,80,73,15305,2147735469,2147422628,2148002733,2147871698,2147612041,2147102619,2148222080,2147206875,3225,4,14,7561
1337724253,5808,341.7300109863281000,10.4895000457763670,34.1530990600585940,205.2023925781250000,477.0952148437500000,10.4905004501342770,36.1222915649414060,49,105,88,80,72,15306,2147736630,2147424795,2148003529,2147872923,2147610230,2147101677,2148222326,2147202889,658,4,14,64767
1337724406,5807,330.2099914550781000,11.0202999114990230,34.1752014160156250,214.2243041992187500,460.6542053222656000,11.0046997070312500,35.3245697021484400,49,106,88,82,72,15306,2147732544,2147421906,2148004452,2147872886,2147608118,2147106322,2148223286,2147208137,3489,4,13,7334
1337724527,5805,319.2000122070312500,11.2182998657226560,34.1869010925293000,217.3876037597656200,454.0654907226562500,11.2103004455566400,35.0390510559082000,49,105,88,79,72,15304,2147734866,2147425993,2148008813,2147870976,2147607689,2147110445,2148220480,2147210166,3041,4,14,48441
1337724651,5808,307.5199890136719000,11.6099996566772460,34.2002983093261700,214.4432983398437500,441.1842041015625000,11.6115598678588870,34.9972381591796900,49,111,89,79,72,15304,2147731492,2147425600,2148015222,2147872621,2147605284,2147116361,2148220882,2147205485,163,4,14,31462
1337724772,5809,296.6799926757812500,11.8987998962402340,34.2192001342773440,224.5166931152343800,432.0284118652344000,11.8962097167968750,34.2953109741210940,49,104,89,81,70,15306,2147731090,2147425033,2148019785,2147876123,2147603629,2147114605,2148226788,2147207625,885,3,14,15787
1337724904,5808,285.2600097656250000,12.2601995468139650,34.2380981445312500,224.4239044189453000,420.5979919433594000,12.2509698867797850,34.1206703186035160,49,105,89,81,72,15305,2147730578,2147431725,2148030134,2147871414,2147604443,2147129124,2148225069,2147206436,1416,4,14,10534
1337725027,5808,274.7000122070312500,12.6972999572753900,34.2588005065918000,208.0653076171875000,405.6686096191406000,12.7133598327636720,34.8018188476562500,49,106,88,81,71,15301,2147727213,2147434185,2148042779,2147873728,2147601161,2147131273,2148231936,2147208356,1474,3,14,54073
1337725170,5804,263.2699890136719000,13.2292003631591800,34.3039016723632800,209.7368927001953000,389.4450073242187500,13.2146902084350590,34.4523391723632800,48,104,88,80,70,15301,2147724004,2147444361,2148065764,2147876425,2147597988,2147132278,2148237184,2147213449,2137,3,14,33429
1337725305,5809,253.0599975585937500,13.8460998535156250,34.3591995239257800,212.8972015380859400,368.3768920898437500,13.8641195297241210,33.9494514465332000,49,106,87,79,70,15302,2147722258,2147442962,2148061229,2147873664,2147594642,2147141659,2148237723,2147212160,1215,3,14,60707
1337725459,5810,241.6999969482422000,14.6759996414184570,34.4329986572265600,215.1517028808593800,342.7713012695312500,14.6513099670410160,33.4392013549804700,48,108,91,81,69,15302,2147726564,2147469211,2148137216,2147875867,2147591652,2147161636,2148269696,2147217408,3337,3,14,22346
1337725636,5808,227.6000061035156200,15.4202995300292970,34.4970016479492200,211.4826965332031200,317.6686096191406000,15.4211902618408200,33.2731704711914060,50,112,90,80,69,15293,2147733577,2147501229,2148215003,2147874779,2147592118,2147184301,2148298934,2147217673,273,4,13,24231
1337725779,5809,217.2899932861328000,16.3379001617431640,34.5764999389648440,207.3358001708984400,288.0008850097656000,16.3292598724365230,33.0758590698242200,50,108,92,81,68,15289,2147738258,2147539035,2148295277,2147874413,2147592521,2147210240,2148336118,2147225014,1705,3,14,14350
1337725945,5809,205.1999969482422000,18.0349998474121100,34.7774009704589840,212.0343933105468800,232.0585021972656200,18.0384807586669920,32.0202293395996100,52,111,93,81,66,15283,2147757540,2147614582,2148453769,2147876662,2147593142,2147265819,2148408027,2147230217,2751,3,15,354
1337726033,5807,197.8099975585937500,18.7754001617431640,34.8641014099121100,212.8520965576172000,205.4620056152343800,18.8507308959960940,31.6079902648925780,56,108,88,81,67,15286,2147780617,2147674633,2148576384,2147873234,2147596946,2147314166,2148468214,2147237979,3506,3,14,10058
1337726088,5806,193.1000061035156200,18.9563007354736330,34.8805999755859400,214.5081024169922000,201.4972991943359400,18.9718399047851560,31.4648303985595700,57,110,91,82,65,15279,2147798326,2147725595,2148675346,2147873545,2147605494,2147349211,2148510866,2147240786,2954,3,15,33586
1337726143,5808,188.4100036621093800,19.2560997009277340,34.9171981811523440,215.2763061523437500,192.5411071777343800,19.2454700469970700,31.3016796112060550,59,110,90,82,66,15279,2147825956,2147797558,2148812333,2147874514,2147616932,2147386294,2148576265,2147245357,2666,2,15,38303
1337726218,5808,182.6199951171875000,20.0967006683349600,35.0133018493652340,215.4214019775390600,170.2673950195312500,19.9263305664062500,30.9933300018310550,66,117,90,83,65,15266,2147847643,2147817307,2148830747,2147875693,2147623433,2147404772,2148582354,2147245056,3006,3,15,13061
1337726273,5808,179.3999938964843800,20.3733005523681640,35.0573997497558600,217.7062988281250000,157.2337951660156200,20.3250694274902340,30.6992397308349600,69,110,90,81,63,15267,2147823542,2147740928,2148637056,2147875885,2147612041,2147366683,2148493056,2147238290,995,2,15,57153
1337726350,5809,175.2500000000000000,20.5741004943847660,35.0830001831054700,219.5370941162109400,148.9445037841797000,20.5788307189941400,30.4946403503417970,68,114,92,82,63,15262,2147820077,2147705133,2148545371,2147877668,2147610450,2147343963,2148434925,2147236754,664,3,15,18525
1337726427,5808,171.6900024414062500,21.1502990722656250,35.1283988952636700,222.9349975585937500,133.7516937255859400,21.0443096160888670,30.1217193603515620,79,122,91,82,64,15245,2147809133,2147678573,2148476891,2147876114,2147609380,2147338459,2148399862,2147236251,1485,3,15,34460
1337726529,5808,167.8399963378906200,21.3141002655029300,35.0844001770019500,222.0615997314453000,125.6240997314453100,21.2935504913330080,30.0594291687011720,95,124,93,83,63,15228,2147843254,2147728265,2148556809,2147875044,2147618834,2147365065,2148434432,2147241444,2800,2,15,61914
1337726639,5810,163.8099975585937500,21.3799991607666000,35.0922012329101560,222.6582031250000000,123.0242004394531200,21.3733196258544920,29.9954299926757800,100,126,94,83,63,15216,2148070537,2148215241,2149517083,2147881243,2147708397,2147614765,2148865618,2147272237,3339,2,16,50916
1337726738,5806,159.5700073242187500,21.4528999328613280,35.0947990417480500,222.9895019531250000,121.1277008056640600,21.4315109252929700,29.9541492462158200,101,129,91,85,64,15215,2148202898,2148443364,2149932434,2147883072,2147764562,2147731812,2149053952,2147282185,2351,1,16,44571
1337726824,5806,155.3999938964843800,21.7182998657226560,35.1104011535644500,224.2427062988281200,112.4937973022461000,21.6965808868408200,29.7794799804687500,104,128,92,84,63,15205,2148398043,2148769883,2150519661,2147889005,2147838528,2147866468,2149262144,2147295890,1829,2,16,36311
1337726901,5811,151.1600036621093800,21.7162990570068360,35.1110992431640600,226.0709991455078000,111.9854965209961000,21.7121906280517580,29.6824607849121100,104,126,92,84,63,15202,2148662729,2149194678,2151240219,2147893549,2147941330,2148067026,2149577590,2147324699,1522,2,15,3444
1337726978,5809,147.2700042724609400,21.7292995452880860,35.1115989685058600,226.4942932128906200,111.3127975463867200,21.7328605651855470,29.6532497406005860,103,124,92,84,63,15206,2148711762,2149172992,2151057472,2147894619,2147963291,2148059913,2149511734,2147316406,822,2,16,53612
1337727055,5810,143.9199981689453000,21.9347000122070300,35.1222991943359400,227.0238037109375000,105.0933990478515600,21.9239597320556640,29.5471096038818360,106,124,94,86,64,15203,2148682724,2149021696,2150670262,2147893001,2147954486,2147989924,2149352192,2147309833,280,2,16,15281
1337727156,5811,139.9799957275390600,22.0723991394042970,35.1234016418457000,228.1663055419922000,98.8286666870117200,22.1165790557861330,29.4109001159667970,108,125,92,85,62,15200,2148913792,2149265609,2150944640,2147894774,2148055926,2148125622,2149490889,2147319890,3441,2,16,34435
1337727299,5811,136.3099975585937500,22.3549003601074220,35.1293983459472660,230.7014007568359400,91.6956329345703100,22.3360595703125000,29.1977691650390620,129,129,92,84,61,15174,2150360466,2151377206,2154337929,2147929782,2148640228,2149076937,2150838436,2147427072,949,2,16,24035
1337727466,5806,131.7500000000000000,22.7007007598876950,35.1552009582519500,232.5424957275390600,80.1059417724609400,22.6930599212646500,28.9629707336425780,137,128,91,84,61,15170,2151571245,2152814226,2156225170,2147955172,2149107648,2149632530,2151489005,2147487405,946,2,16,27565
1337727554,5805,127.6299972534179700,22.7858009338378900,35.1689987182617200,238.8735961914062500,77.2316284179687500,22.7816791534423830,28.6334209442138670,125,129,91,85,59,15147,2152435062,2153826532,2157421275,2147973714,2149574098,2150146002,2152042075,2147538660,581,2,15,26484
1337727631,5806,123.5500030517578100,22.8568000793457030,35.1791992187500000,241.1060028076172000,75.1382980346679700,22.8462390899658200,28.5059890747070300,120,131,95,85,59,15151,2153544576,2155154422,2158985426,2148003346,2150139035,2150788050,2152727232,2147596141,4,2,15,5881
1337727708,5808,119.3099975585937500,22.8729991912841800,35.1781997680664060,242.7929992675781200,74.4815368652343800,22.8664894104003900,28.4220104217529300,123,131,93,86,60,15147,2155151204,2157128658,2161323565,2148045184,2150997833,2151766838,2153778148,2147691355,185,2,16,42030
1337727787,5809,115.4100036621093800,22.9221000671386720,35.1745986938476560,243.9302978515625000,72.8256530761718800,22.9175796508789060,28.3505897521972660,122,132,93,85,60,15136,2156899977,2159270683,2163629202,2148094582,2151964964,2152827236,2154862930,2147792027,3493,2,16,17335
1337727875,5810,111.6299972534179700,23.0272998809814450,35.1642990112304700,244.5384979248047000,69.6980972290039000,23.0140895843505860,28.2845592498779300,101,134,93,85,59,15148,2159139776,2161975021,2166404982,2148160045,2153284900,2154290432,2156296338,2147922605,3171,2,16,43993
1337727974,5807,107.8199996948242200,23.0559005737304700,35.1645011901855500,245.5193939208984400,68.4658126831054700,23.0521297454834000,28.2259502410888670,97,134,91,86,59,15149,2161977526,2165311058,2169646656,2148248941,2155074788,2156222921,2158098066,2148079122,2455,2,16,26971
1337728076,5810,103.7799987792968800,23.0969009399414060,35.1607017517089840,245.8813934326172000,67.1645736694336000,23.0923099517822270,28.1939201354980470,93,132,96,86,60,15148,2165863058,2169806006,2173926957,2148373622,2157487780,2158864768,2160461449,2148297892,3100,1,17,17706
1337728175,5808,99.6399993896484400,23.1721992492675780,35.1509017944335940,246.1869049072265600,64.5141983032226600,23.1741600036621100,28.1474704742431640,88,132,96,86,60,15146,2170476672,2175119341,2178994011,2148535616,2160430235,2162091821,2163282816,2148552237,3223,2,16,34544
1337728230,5807,97.3399963378906200,23.1944999694824220,35.1483993530273440,246.6374969482422000,63.9839096069335940,23.1905403137207030,28.1210594177246100,85,135,94,86,60,15143,2173034249,2177866779,2181362651,2148648009,2162289225,2164034587,2164854912,2148703698,2805,1,17,4439
1337728285,5810,94.9899978637695300,23.1949005126953120,35.1487007141113300,246.9221038818359400,63.8417015075683600,23.1949291229248050,28.1069602966308600,84,134,94,86,59,15139,2175938843,2181058934,2184286646,2148783296,2164328886,2166181165,2166587355,2148863488,2508,1,16,48448
1337728340,5807,92.4800033569336000,23.2509994506835940,35.1442985534668000,247.0561065673828000,62.2511215209960940,23.2440700531005860,28.0813694000244140,83,135,97,87,58,15131,2179436827,2184844269,2187788836,2148941769,2166942500,2168964461,2168839990,2149080027,2387,1,16,13262
1337728397,5810,89.9899978637695300,23.2828998565673830,35.1417007446289060,247.1134948730468800,61.1876907348632800,23.2769298553466800,28.0654602050781250,84,133,94,88,59,15131,2183127021,2188925942,2191644580,2149150052,2169659382,2171847232,2171167405,2149300333,2188,2,16,61184
1337728452,5755,87.7799987792968800,23.2954998016357420,35.1419982910156250,247.0847930908203000,60.5012207031250000,23.2981395721435550,28.0582904815673830,83,136,93,86,57,15130,2186631798,2192611648,2194934619,2149365092,2172363803,2174637513,2173359725,2149516800,2630,1,16,13335
1337728507,5806,85.8799972534179700,23.3868999481201170,35.1323013305664060,246.6618957519531200,58.4461517333984400,23.3616600036621100,28.0513000488281250,82,133,95,87,60,15128,2190030180,2196297161,2198391360,2149549330,2174705590,2177064548,2175263725,2149699428,2924,2,17,18743
1337728573,5812,84.3000030517578100,23.4239006042480470,35.1310005187988300,246.5413055419922000,56.7580108642578100,23.4138603210449220,28.0355091094970700,78,137,95,89,58,15128,2192632219,2198922404,2200695625,2149741696,2176637037,2179025033,2176687158,2149852406,2920,2,16,31473
1337728672,5810,82.4700012207031200,23.4564990997314450,35.1285018920898440,246.7377929687500000,55.4938507080078100,23.4529495239257800,28.0113391876220700,75,135,97,87,59,15127,2197029458,2203565915,2204936356,2149971885,2179938797,2182490605,2179324973,2150105883,3296,1,16,55018
1337728761,5809,79.9300003051757800,23.6313991546630860,35.1263999938964840,245.8954925537109400,49.9143905639648440,23.6255798339843750,27.9789009094238280,74,134,97,88,59,15128,2202812580,2209335460,2209811666,2150403574,2185352685,2187981110,2183283949,2150508452,2337,2,16,32690
1337728816,5805,77.8499984741211000,23.8614997863769530,35.1195983886718750,245.1116943359375000,43.2398300170898440,23.8322792053222660,27.9306697845459000,72,133,95,88,60,15125,2208535277,2215314148,2215683181,2150843611,2189667382,2192492882,2186701339,2150864283,1578,1,16,46846
1337728871,5806,76.0299987792968800,23.8812007904052730,35.1212005615234400,245.3880004882812500,41.9286613464355500,23.8729095458984380,27.9021492004394530,70,133,96,89,58,15119,2212178880,2218666212,2218409024,2151205339,2193160768,2195964790,2189159744,2151123008,1613,1,16,34737
1337728937,5808,73.7300033569336000,23.9701004028320300,35.1172981262207000,245.3697052001953000,39.2045211791992200,23.9573497772216800,27.8694801330566400,69,133,95,88,58,15121,2217158738,2223247314,2222246427,2151608256,2198231341,2201006189,2192890998,2151529536,1578,1,16,38765
1337728992,5806,71.7200012207031200,24.0755996704101560,35.1049003601074200,245.4898986816406200,36.0612297058105500,24.0548191070556640,27.8253097534179700,67,136,95,86,62,15115,2223457243,2230265344,2229564946,2152406253,2202798217,2205589933,2196304045,2151941348,1659,1,16,377
1337729069,5809,69.0100021362304700,24.0820007324218750,35.0834007263183600,246.2066040039062500,35.3301200866699200,24.0774993896484380,27.7851009368896500,66,132,97,86,57,15110,2230996534,2237658093,2236431862,2153258889,2210518774,2213078893,2201691072,2152548086,1351,2,17,42858
1337729124,5812,66.6399993896484400,24.1152000427246100,35.0816993713378900,246.4913940429687500,34.2440605163574200,24.1112003326416000,27.7593994140625000,65,131,96,86,58,15104,2236054683,2242318290,2240644480,2154148918,2216946029,2218931986,2205543067,2153023680,837,2,16,30957
1337729179,5807,64.4499969482421900,24.1327991485595700,35.0629005432128900,246.6157989501953000,33.5202293395996100,24.1336593627929700,27.7450904846191400,63,133,95,87,56,15094,2244152768,2251155492,2249502564,2155286253,2226252854,2228100864,2212124955,2153737289,977,1,16,59603
1337729234,5808,62.5699996948242200,24.1826992034912100,35.0628013610839840,246.5785064697265600,31.9469604492187500,24.1824893951416000,27.7273597717285160,65,132,98,87,56,15085,2248881645,2255881746,2253822573,2156125412,2233763382,2234802404,2216368786,2154276370,1397,2,16,55118
1337729289,5806,60.8800010681152340,24.2173004150390620,35.0647010803222660,246.5641937255859400,30.8316993713378900,24.2171096801757800,27.7141799926757800,64,133,98,87,57,15081,2254805760,2262120886,2259606656,2157064082,2241078628,2241346788,2220439716,2154811382,1831,1,16,54890
1337729344,5806,59.2200012207031250,24.2523994445800780,35.0638008117675800,246.1954040527343800,29.7925605773925780,24.2493705749511720,27.7174091339111330,63,133,96,86,58,15084,2260953152,2268543853,2265892864,2158251620,2249033673,2248771474,2225517019,2155497636,1891,1,17,25763
1337729422,5812,56.1599998474121100,24.2740993499755860,35.0713005065918000,246.0070953369140600,28.9279804229736330,24.2762203216552730,27.7148704528808600,61,134,93,88,54,15093,2275416210,2282885668,2279675428,2161038756,2265083282,2263780736,2235857508,2156934738,1547,2,16,30378
1337729477,5811,53.0999984741210940,24.2931995391845700,35.0722999572753900,245.7581939697265600,28.0360698699951170,24.3039207458496100,27.7147808074951170,60,132,97,86,55,15101,2286819200,2293679533,2290167762,2164277760,2279826678,2277117120,2244796516,2158202230,855,1,16,58455
1337729532,5810,49.8899993896484400,24.3658008575439450,35.0690994262695300,245.6838073730468800,25.8279590606689450,24.3725109100341800,27.6909294128417970,59,131,95,88,55,15095,2300918098,2307061165,2302221540,2167631012,2297031872,2292816502,2255626898,2159903862,482,2,16,39500
1337729587,5809,46.7700004577636700,24.5158996582031250,35.0503997802734400,245.2525024414062500,21.7775192260742200,24.4984092712402340,27.6599102020263670,59,132,94,87,52,15085,2315213046,2321548909,2316728905,2171998217,2316750582,2310911762,2267822656,2161871369,935,1,17,63101
1337729642,5808,44.0200004577636700,24.5697002410888670,35.0461997985839840,244.8865051269531200,19.1713008880615230,24.5794601440429700,27.6436691284179700,58,128,99,87,60,15096,2333715922,2341767936,2337267702,2178548900,2335001481,2326421083,2277481737,2163851044,1645,1,17,8350
1337729697,5809,41.4500007629394500,24.6357994079589840,35.0382995605468750,244.9114990234375000,17.0761108398437500,24.6446495056152340,27.6168994903564450,57,129,95,87,56,15108,2338021824,2343939904,2338366573,2182062189,2352732324,2342159241,2288407670,2166007606,1384,1,17,52276
1337729754,5809,38.8800010681152340,24.7726001739501950,35.0299987792968750,244.1123046875000000,12.8817701339721680,24.7752208709716800,27.6002693176269530,55,127,97,87,58,15101,2353758189,2360878646,2356512036,2189721892,2368780635,2356082724,2297618806,2168213504,1245,1,17,65035
1337729809,5811,36.6599998474121100,24.8330993652343750,35.0275001525878900,243.5332946777343800,10.6895999908447270,24.8434906005859380,27.5986595153808600,55,126,97,85,53,15102,2359941476,2366202432,2361069897,2194148854,2387601024,2372737051,2308958262,2170665709,1185,1,17,62872
1337729864,5807,34.7999992370605500,24.9421005249023440,35.0251998901367200,242.8020935058593800,7.2104568481445310,24.9519195556640620,27.5880393981933600,55,124,97,86,62,15120,2366416740,2372976356,2368684150,2199315273,2398402980,2381008822,2313730953,2172042624,931,1,17,59246
1337729919,5805,33.2599983215332000,24.9659004211425780,35.0260009765625000,242.3580932617187500,6.1089630126953125,24.9862594604492200,27.5940494537353500,54,123,94,83,56,15125,2392675958,2402804681,2401282669,2211407113,2411443254,2391980580,2321130413,2173761051,702,1,17,62623
1337730007,5807,31.2600002288818360,25.0328998565673830,35.0276985168457000,241.9049072265625000,4.0071749687194820,25.0517997741699220,27.5882892608642580,54,123,93,87,57,15126,2386653677,2394986962,2391938715,2214307830,2431568493,2408960082,2331777051,2176297142,207,1,16,3578
1337730096,5809,28.6900005340576170,25.0613002777099600,35.0307006835937500,241.5003967285156200,3.1252920627593994,25.0793094635009770,27.5953102111816400,54,120,92,86,54,15132,2411415753,2424204288,2423747337,2233030262,2460980032,2433063872,2347359369,2179671853,3264,1,16,59189